Weather History for KOLS - January, 2013

Change the Weather History Date:

Wednesday, January 16, 2013

  Actual Average (KTUS) Record (KTUS)
Temperature  
Mean Temperature 41 °F 53 °F  
Max Temperature 61 °F 66 °F 84 °F (2000)
Min Temperature 21 °F 40 °F 22 °F (1919)
Degree Days  
Heating Degree Days 24 12  
Month to date heating degree days 206  
Since 1 July heating degree days 817  
Cooling Degree Days 0 0  
Month to date cooling degree days 0  
Year to date cooling degree days 0  
Moisture  
Dew Point 2 °F    
Average Humidity 21    
Maximum Humidity 42    
Minimum Humidity 9    
Precipitation  
Precipitation 0.00 in 0.03 in 0.37 in (1987)
Month to date precipitation 0.48  
Year to date precipitation 0.48  
Sea Level Pressure  
Sea Level Pressure 30.21 in    
Wind  
Wind Speed 8 mph (ENE)    
Max Wind Speed 14 mph    
Max Gust Speed 20 mph    
Visibility 10 miles    
Events      
T = Trace of Precipitation, MM = Missing Value Source: NWS Daily Summary

Daily Weather History Graph

Daily Weather History Graph

Search for Another Location

Airport or City:

Trip Planner

Search our weather history database for the weather conditions in past years. The results will help you decide how hot, cold, wet, or windy it might be!

Date:

Astronomy

Jan. 16, 2013 Rise Set
Actual Time 7:22 AM MST 5:44 PM MST
Civil Twilight 6:56 AM MST 6:10 PM MST
Nautical Twilight 6:26 AM MST 6:40 PM MST
Astronomical Twilight 5:57 AM MST 7:09 PM MST
Moon 10:24 AM MST (1/16) 11:13 PM MST (1/16)
Length of Visible Light 11h 13m
Length of Day
10h 21m
Waxing Crescent, 29% of the Moon is Illuminated
Jan 16
Waxing Crescent
Jan 18
First Quarter
Jan 26
Full
Feb 3
Last Quarter
Feb 10
New

Hourly Weather History & Observations

Time (MST) Temp. Windchill Dew Point Humidity Pressure Visibility Wind Dir Wind Speed Gust Speed Precip Events Conditions
12:54 AM 25.0 °F 20.7 °F -0.9 °F 33% 30.26 in 10.0 mi SE 3.5 mph - N/A   Clear
1:54 AM 24.1 °F - -0.9 °F 34% 30.27 in 10.0 mi Calm Calm - N/A   Clear
2:54 AM 21.0 °F - 1.0 °F 42% 30.28 in 10.0 mi Calm Calm - N/A   Clear
3:54 AM 26.1 °F 19.4 °F -0.9 °F 31% 30.26 in 10.0 mi SE 5.8 mph - N/A   Clear
4:22 AM 30.9 °F 20.7 °F -2.0 °F 24% 30.26 in 10.0 mi NE 13.8 mph - N/A   Clear
4:54 AM 30.9 °F 21.2 °F -2.0 °F 24% 30.24 in 10.0 mi NE 12.7 mph - N/A   Clear
5:54 AM 30.9 °F 22.2 °F -2.0 °F 24% 30.25 in 10.0 mi NE 10.4 mph - N/A   Clear
6:54 AM 32.0 °F 22.1 °F -2.0 °F 23% 30.25 in 10.0 mi NNE 13.8 mph - N/A   Clear
7:54 AM 33.1 °F 23.9 °F -2.0 °F 22% 30.27 in 10.0 mi NE 12.7 mph - N/A   Clear
8:54 AM 37.9 °F 30.5 °F -2.0 °F 18% 30.28 in 10.0 mi NNE 11.5 mph 17.3 mph N/A   Clear
9:54 AM 44.1 °F 38.6 °F -0.9 °F 15% 30.27 in 10.0 mi NNE 10.4 mph 19.6 mph N/A   Clear
10:54 AM 51.1 °F - 1.0 °F 13% 30.25 in 10.0 mi North 12.7 mph - N/A   Clear
11:54 AM 55.0 °F - 1.0 °F 11% 30.19 in 10.0 mi Variable 3.5 mph - N/A   Clear
12:54 PM 57.2 °F - 3.2 °F 11% 30.20 in 10.0 mi ESE 10.4 mph 17.3 mph N/A   Clear
1:54 PM 60.1 °F - 3.0 °F 10% 30.14 in 10.0 mi ESE 11.5 mph 17.3 mph N/A   Clear
2:54 PM 61.0 °F - 1.0 °F 9% 30.14 in 10.0 mi East 11.5 mph - N/A   Clear
3:54 PM 61.0 °F - 3.0 °F 10% 30.12 in 10.0 mi East 9.2 mph - N/A   Clear
4:54 PM 59.0 °F - 3.9 °F 11% 30.12 in 10.0 mi East 11.5 mph - N/A   Clear
5:54 PM 53.1 °F - 3.9 °F 14% 30.14 in 10.0 mi ENE 13.8 mph - N/A   Clear
6:54 PM 50.0 °F - 6.1 °F 17% 30.16 in 10.0 mi NNE 11.5 mph - N/A   Clear
7:54 PM 46.9 °F - 6.1 °F 19% 30.18 in 10.0 mi NNE 9.2 mph - N/A   Clear
8:54 PM 45.0 °F 39.7 °F 6.1 °F 20% 30.17 in 10.0 mi NE 10.4 mph - N/A   Clear
9:54 PM 42.1 °F 37.7 °F 7.0 °F 24% 30.17 in 10.0 mi ENE 6.9 mph - N/A   Clear
10:54 PM 43.0 °F 38.8 °F 7.0 °F 23% 30.14 in 10.0 mi ENE 6.9 mph - N/A   Clear
11:54 PM 35.1 °F 30.1 °F 8.1 °F 33% 30.16 in 10.0 mi East 5.8 mph - N/A   Clear